DLH2344 EDDM-LOWG

Flight info

Callsign DLH2344
Flight time 0h 37m
Altitude 27000
Route KIRDI2Q KIRDI DCT BUBSE DCT LEOBE LEOBE2M
Aircraft A319/M-SDE3FGHIRWY/LB1

Departure

Time 2026-05-06 10:20
Airport Munich Airport (EDDM)

Arrival

Time 2026-05-06 10:57
Airport Graz Airport (LOWG)
Time Latitude Longitude Altitude Speed Heading
2026-05-06 09:54 48.35162 11.79362 1486 ft 0 kts 263°
2026-05-06 10:06 48.35162 11.79363 1485 ft 2 kts 263°
2026-05-06 10:07 48.35164 11.79400 1475 ft 4 kts 263°
2026-05-06 10:07 48.35167 11.79437 1476 ft 1 kts 263°
2026-05-06 10:07 48.35168 11.79472 1475 ft 4 kts 282°
2026-05-06 10:07 48.35157 11.79503 1476 ft 4 kts 338°
2026-05-06 10:08 48.35135 11.79509 1480 ft 2 kts 353°
2026-05-06 10:08 48.35133 11.79510 1479 ft 0 kts 353°
2026-05-06 10:11 48.35137 11.79512 1485 ft 0 kts 19°
2026-05-06 10:11 48.35138 11.79520 1485 ft 1 kts 60°
2026-05-06 10:12 48.35136 11.79537 1477 ft 4 kts 104°
2026-05-06 10:12 48.35106 11.79579 1482 ft 8 kts 160°
2026-05-06 10:12 48.35040 11.79593 1485 ft 5 kts 173°
2026-05-06 10:12 48.35003 11.79581 1485 ft 4 kts 208°
2026-05-06 10:13 48.34979 11.79561 1485 ft 4 kts 208°
2026-05-06 10:13 48.34949 11.79543 1488 ft 0 kts 187°
2026-05-06 10:13 48.34850 11.79558 1487 ft 0 kts 180°
2026-05-06 10:13 48.34849 11.79558 1485 ft 1 kts 180°
2026-05-06 10:14 48.34839 11.79558 1485 ft 4 kts 180°
2026-05-06 10:14 48.34798 11.79532 1477 ft 9 kts 227°
2026-05-06 10:14 48.34780 11.79408 1481 ft 15 kts 263°
2026-05-06 10:14 48.34765 11.79221 1480 ft 21 kts 263°
2026-05-06 10:15 48.34746 11.78974 1485 ft 27 kts 264°
2026-05-06 10:15 48.34723 11.78676 1472 ft 29 kts 263°
2026-05-06 10:15 48.34700 11.78374 1480 ft 30 kts 263°
2026-05-06 10:15 48.34676 11.78066 1485 ft 30 kts 263°
2026-05-06 10:16 48.34652 11.77757 1485 ft 30 kts 263°
2026-05-06 10:16 48.34629 11.77448 1485 ft 30 kts 263°
2026-05-06 10:16 48.34605 11.77137 1485 ft 30 kts 263°
2026-05-06 10:16 48.34581 11.76825 1485 ft 30 kts 263°
2026-05-06 10:17 48.34557 11.76514 1485 ft 30 kts 263°
2026-05-06 10:17 48.34535 11.76231 1485 ft 25 kts 263°
2026-05-06 10:17 48.34515 11.75968 1485 ft 26 kts 263°
2026-05-06 10:17 48.34494 11.75701 1476 ft 26 kts 263°
2026-05-06 10:18 48.34473 11.75430 1485 ft 26 kts 263°
2026-05-06 10:18 48.34454 11.75253 1483 ft 15 kts 242°
2026-05-06 10:18 48.34361 11.75226 1476 ft 15 kts 174°
2026-05-06 10:18 48.34256 11.75244 1478 ft 16 kts 173°
2026-05-06 10:19 48.34145 11.75265 1476 ft 16 kts 173°
2026-05-06 10:19 48.34090 11.75388 1485 ft 18 kts 84°
2026-05-06 10:19 48.34127 11.75871 1486 ft 85 kts 83°
2026-05-06 10:19 48.34222 11.77110 1480 ft 150 kts 83°
2026-05-06 10:20 48.34361 11.78818 1912 ft 167 kts 83°
2026-05-06 10:20 48.34520 11.80575 2648 ft 172 kts 82°
2026-05-06 10:20 48.34661 11.82350 3440 ft 171 kts 84°
2026-05-06 10:20 48.34785 11.84118 4208 ft 170 kts 85°
2026-05-06 10:21 48.34912 11.85937 4698 ft 188 kts 85°
2026-05-06 10:21 48.35059 11.88008 5056 ft 211 kts 85°
2026-05-06 10:21 48.35230 11.90340 5470 ft 236 kts 85°
2026-05-06 10:21 48.35349 11.92876 6225 ft 247 kts 97°
2026-05-06 10:22 48.34849 11.95427 6820 ft 265 kts 114°
2026-05-06 10:22 48.34380 11.98179 7592 ft 279 kts 99°
2026-05-06 10:22 48.34151 12.01111 8522 ft 286 kts 99°
2026-05-06 10:22 48.33921 12.04120 9422 ft 293 kts 100°
2026-05-06 10:23 48.33682 12.07220 10140 ft 307 kts 100°
2026-05-06 10:23 48.33419 12.10537 10501 ft 332 kts 100°
2026-05-06 10:23 48.33135 12.14055 10897 ft 351 kts 101°
2026-05-06 10:23 48.32836 12.17744 11633 ft 358 kts 101°
2026-05-06 10:24 48.32537 12.21485 12466 ft 362 kts 100°
2026-05-06 10:24 48.32237 12.25270 13323 ft 366 kts 100°
2026-05-06 10:24 48.31933 12.29084 14103 ft 370 kts 101°
2026-05-06 10:24 48.31624 12.32943 14832 ft 374 kts 101°
2026-05-06 10:25 48.31307 12.36840 15558 ft 378 kts 101°
2026-05-06 10:25 48.30983 12.40781 16279 ft 382 kts 101°
2026-05-06 10:25 48.30656 12.44749 16992 ft 387 kts 101°
2026-05-06 10:25 48.30326 12.48777 17704 ft 391 kts 102°
2026-05-06 10:26 48.29993 12.52845 18367 ft 395 kts 102°
2026-05-06 10:26 48.29653 12.56977 18973 ft 400 kts 102°
2026-05-06 10:26 48.29307 12.61134 19573 ft 404 kts 102°
2026-05-06 10:26 48.28953 12.65342 20172 ft 408 kts 102°
2026-05-06 10:27 48.28594 12.69593 20773 ft 413 kts 103°
2026-05-06 10:27 48.28230 12.73889 21355 ft 417 kts 103°
2026-05-06 10:27 48.27863 12.78236 21918 ft 421 kts 103°
2026-05-06 10:27 48.27492 12.82613 22482 ft 425 kts 103°
2026-05-06 10:28 48.27114 12.87045 23026 ft 429 kts 103°
2026-05-06 10:28 48.26730 12.91510 23524 ft 433 kts 103°
2026-05-06 10:28 48.26339 12.96008 23939 ft 437 kts 103°
2026-05-06 10:28 48.25940 13.00555 24373 ft 441 kts 103°
2026-05-06 10:29 48.25535 13.05133 24803 ft 444 kts 103°
2026-05-06 10:29 48.25129 13.09744 25226 ft 447 kts 103°
2026-05-06 10:29 48.24725 13.14326 25655 ft 450 kts 103°
2026-05-06 10:29 48.24313 13.19000 26087 ft 454 kts 103°
2026-05-06 10:30 48.23899 13.23708 26504 ft 457 kts 103°
2026-05-06 10:30 48.23478 13.28447 26759 ft 459 kts 104°
2026-05-06 10:30 48.23049 13.33204 26811 ft 460 kts 104°
2026-05-06 10:30 48.22589 13.37943 26782 ft 458 kts 107°
2026-05-06 10:31 48.21755 13.42505 26812 ft 451 kts 117°
2026-05-06 10:31 48.20477 13.46760 26810 ft 443 kts 126°
2026-05-06 10:31 48.18818 13.50596 26810 ft 435 kts 135°
2026-05-06 10:31 48.16942 13.54136 26810 ft 434 kts 136°
2026-05-06 10:32 48.15069 13.57664 26813 ft 434 kts 136°
2026-05-06 10:32 48.13192 13.61214 26814 ft 434 kts 135°
2026-05-06 10:32 48.11323 13.64758 26812 ft 434 kts 135°
2026-05-06 10:32 48.09453 13.68297 26810 ft 433 kts 135°
2026-05-06 10:33 48.07581 13.71830 26805 ft 433 kts 136°
2026-05-06 10:33 48.05707 13.75358 26778 ft 433 kts 136°
2026-05-06 10:33 48.03831 13.78880 26781 ft 433 kts 136°
2026-05-06 10:33 48.01954 13.82399 26785 ft 433 kts 136°
2026-05-06 10:34 48.00075 13.85919 26792 ft 433 kts 136°
2026-05-06 10:34 47.98194 13.89440 26791 ft 434 kts 136°
2026-05-06 10:34 47.96312 13.92959 26794 ft 434 kts 136°
2026-05-06 10:34 47.94429 13.96478 26795 ft 434 kts 136°
2026-05-06 10:35 47.92542 13.99995 26796 ft 434 kts 136°
2026-05-06 10:35 47.90656 14.03510 26800 ft 434 kts 136°
2026-05-06 10:35 47.88793 14.06978 26799 ft 434 kts 136°
2026-05-06 10:35 47.86910 14.10479 26771 ft 434 kts 136°
2026-05-06 10:36 47.85022 14.13986 26776 ft 434 kts 136°
2026-05-06 10:36 47.83130 14.17495 26786 ft 434 kts 136°
2026-05-06 10:36 47.81236 14.21002 26790 ft 434 kts 136°
2026-05-06 10:36 47.79341 14.24498 26794 ft 435 kts 136°
2026-05-06 10:37 47.77445 14.27993 26798 ft 435 kts 136°
2026-05-06 10:37 47.75540 14.31501 26806 ft 435 kts 136°
2026-05-06 10:37 47.73643 14.34993 26804 ft 435 kts 136°
2026-05-06 10:37 47.71746 14.38477 26809 ft 434 kts 136°
2026-05-06 10:38 47.69849 14.41957 26810 ft 433 kts 136°
2026-05-06 10:38 47.67951 14.45438 26795 ft 434 kts 136°
2026-05-06 10:38 47.66054 14.48912 26798 ft 434 kts 135°
2026-05-06 10:38 47.64147 14.52396 26811 ft 435 kts 136°
2026-05-06 10:39 47.62245 14.55870 26815 ft 434 kts 135°
2026-05-06 10:39 47.60342 14.59344 26816 ft 435 kts 135°
2026-05-06 10:39 47.58432 14.62832 26814 ft 435 kts 135°
2026-05-06 10:39 47.56522 14.66307 26816 ft 435 kts 136°
2026-05-06 10:40 47.54608 14.69776 26826 ft 435 kts 136°
2026-05-06 10:40 47.52689 14.73247 26840 ft 436 kts 136°
2026-05-06 10:40 47.50771 14.76714 26818 ft 436 kts 135°
2026-05-06 10:40 47.48846 14.80193 26828 ft 437 kts 135°
2026-05-06 10:41 47.46919 14.83677 26830 ft 437 kts 135°
2026-05-06 10:41 47.45026 14.87101 26837 ft 436 kts 135°
2026-05-06 10:41 47.43104 14.90574 26848 ft 436 kts 135°
2026-05-06 10:41 47.41159 14.94081 26869 ft 436 kts 135°
2026-05-06 10:42 47.39257 14.97504 26857 ft 436 kts 135°
2026-05-06 10:42 47.37319 15.00926 26858 ft 434 kts 138°
2026-05-06 10:42 47.35138 15.03940 26858 ft 427 kts 147°
2026-05-06 10:42 47.32740 15.06489 26860 ft 425 kts 150°
2026-05-06 10:43 47.30320 15.08995 26844 ft 425 kts 149°
2026-05-06 10:43 47.27901 15.11505 26839 ft 426 kts 149°
2026-05-06 10:43 47.25482 15.14023 26848 ft 427 kts 149°
2026-05-06 10:44 47.20628 15.19081 26855 ft 427 kts 149°
2026-05-06 10:44 47.18200 15.21605 26858 ft 427 kts 149°
2026-05-06 10:44 47.15770 15.24123 26862 ft 427 kts 149°
2026-05-06 10:44 47.13288 15.26493 26861 ft 423 kts 156°
2026-05-06 10:45 47.10600 15.28165 26866 ft 417 kts 167°
2026-05-06 10:45 47.07792 15.29109 26868 ft 413 kts 173°
2026-05-06 10:45 47.04963 15.29877 26871 ft 414 kts 173°
2026-05-06 10:45 47.02131 15.30656 26870 ft 414 kts 173°
2026-05-06 10:46 46.99305 15.31441 26874 ft 414 kts 173°
2026-05-06 10:46 46.96461 15.31995 26846 ft 409 kts 185°
2026-05-06 10:46 46.93737 15.31146 26850 ft 400 kts 206°
2026-05-06 10:46 46.91492 15.28820 26882 ft 396 kts 228°
2026-05-06 10:47 46.90070 15.25394 26881 ft 399 kts 249°
2026-05-06 10:47 46.89698 15.21373 26866 ft 406 kts 271°
2026-05-06 10:47 46.90464 15.17373 26877 ft 417 kts 293°
2026-05-06 10:47 46.92248 15.13959 26535 ft 427 kts 312°
2026-05-06 10:48 46.94686 15.11527 25020 ft 443 kts 333°
2026-05-06 10:48 46.97723 15.10506 23605 ft 457 kts 355°
2026-05-06 10:48 47.00879 15.11178 22196 ft 463 kts 18°
2026-05-06 10:48 47.03669 15.13475 21017 ft 458 kts 40°
2026-05-06 10:49 47.05836 15.16846 19850 ft 452 kts 52°
2026-05-06 10:49 47.07784 15.20428 18710 ft 447 kts 52°
2026-05-06 10:49 47.09792 15.23884 17748 ft 440 kts 44°
2026-05-06 10:49 47.12253 15.26279 17458 ft 414 kts 20°
2026-05-06 10:50 47.14965 15.27087 17131 ft 387 kts 358°
2026-05-06 10:50 47.17571 15.26595 16530 ft 370 kts 342°
2026-05-06 10:50 47.20038 15.25712 15945 ft 361 kts 343°
2026-05-06 10:50 47.22467 15.24951 15371 ft 354 kts 345°
2026-05-06 10:51 47.24870 15.24270 14775 ft 348 kts 347°
2026-05-06 10:51 47.27263 15.23976 14280 ft 344 kts
2026-05-06 10:51 47.29408 15.25225 14147 ft 326 kts 38°
2026-05-06 10:51 47.30782 15.27686 14017 ft 304 kts 68°
2026-05-06 10:52 47.31303 15.30676 13160 ft 304 kts 97°
2026-05-06 10:52 47.30718 15.33601 12251 ft 300 kts 129°
2026-05-06 10:52 47.29198 15.35607 11304 ft 295 kts 159°
2026-05-06 10:52 47.27205 15.36227 10274 ft 296 kts 180°
2026-05-06 10:53 47.25107 15.36478 8959 ft 310 kts 176°
2026-05-06 10:53 47.22922 15.36921 7545 ft 322 kts 173°
2026-05-06 10:53 47.20691 15.37536 6323 ft 328 kts 171°
2026-05-06 10:53 47.18538 15.38218 5956 ft 304 kts 169°
2026-05-06 10:54 47.16564 15.38856 5567 ft 285 kts 170°
2026-05-06 10:54 47.14667 15.39449 5197 ft 272 kts 170°
2026-05-06 10:54 47.12853 15.39993 4683 ft 259 kts 170°
2026-05-06 10:54 47.11167 15.40488 4189 ft 236 kts 172°
2026-05-06 10:55 47.09622 15.40941 3782 ft 218 kts 172°
2026-05-06 10:55 47.08174 15.41359 3373 ft 206 kts 172°
2026-05-06 10:55 47.06802 15.41750 2994 ft 195 kts 172°
2026-05-06 10:55 47.05519 15.42116 2648 ft 182 kts 173°
2026-05-06 10:56 47.04310 15.42463 2311 ft 170 kts 173°
2026-05-06 10:56 47.03210 15.42785 2015 ft 153 kts 173°
2026-05-06 10:56 47.02227 15.43104 1719 ft 139 kts 170°
2026-05-06 10:56 47.01315 15.43337 1445 ft 128 kts 169°
2026-05-06 10:57 47.00462 15.43590 1206 ft 124 kts 172°
2026-05-06 10:57 46.99647 15.43812 1110 ft 108 kts 169°
2026-05-06 10:57 46.99075 15.43970 1103 ft 59 kts 169°
2026-05-06 10:57 46.98835 15.44036 1104 ft 40 kts 169°